Regional Weather Roundup
Issued by NWS Jackson, KY

Home | Current Version | Previous Version | Text Only | Print | Product List | Glossary On
Versions: 1 2 3 4 5 6 7 8 9 10 11 12 13 14 15 16 17 18 19 20 21 22 23 24 25 26 27 28 29 30 31 32 33 34 35 36 37 38 39 40 41 42 43 44 45 46 47 48 49 50
000
ASUS43 KJKL 202119
RWRJKL

EAST KENTUCKY HOURLY WEATHER ROUNDUP
NATIONAL WEATHER SERVICE JACKSON KY
500 PM EDT WED AUG 20 2014

NOTE: "FAIR" INDICATES FEW OR NO CLOUDS BELOW 12,000 FEET WITH
NO SIGNIFICANT WEATHER AND/OR OBSTRUCTIONS TO VISIBILITY.

* THESE REPORTS ARE NOT UNDER NWS QUALITY CONTROL AND MAY NOT
  REPORT WEATHER SUCH AS PRECIPITATION AND FOG.

KYZ079-080-083-085-087-088-110-112-115-119-120-202200
...EASTERN KENTUCKY...

CITY           SKY/WX    TMP DP  RH WIND       PRES   REMARKS
JACKSON        MOSUNNY   86  71  60 VRB6      30.00S HX  91
LONDON         PTSUNNY   88  71  57 W13       29.99S HX  94
SOMERSET*      PTSUNNY   84  70  61 CALM      29.99R
MONTICELLO*    PTSUNNY   87  77  72 W6        30.00F HX  98
WILLIAMSBURG*    N/A    N/A N/A N/A NW5         N/A
MIDDLESBORO*   TSTM      79  68  69 E14G25    30.03R
HARLAN APT*    PTCLDY    70  68  94 MISG      30.03F
BLACK MTN*       N/A     70  66  88 SW1         N/A
PIKEVILLE APT* SUNNY     82  70  65 CALM      30.00F
BIG SANDY*     PTCLDY    84  71  64 W3        29.99S
MOREHEAD APT*  PTCLDY    82  70  65 NW7       30.00R
ASHLAND*       MOSUNNY   84  66  54 W5        29.93S
$$

KYZ035-036-041-042-044-050-067-078-099-202200
...CENTRAL KENTUCKY...

CITY           SKY/WX    TMP DP  RH WIND       PRES   REMARKS
MT STERLING*   CLOUDY    82  72  69 N6        29.99S
FLEMING/MASON* SUNNY     82  70  65 NW3       29.99R
DANVILLE*      PTSUNNY   86  72  62 N6        29.99R HX  92
RICHMOND*      PTSUNNY   84  70  61 NW3       29.95F
LEXINGTON      TSTM      80  70  71 NW39G49   30.02R SQUALL  VSB 1
FRANKFORT      TSTM      70  68  93 VRB6      30.02R FOG
$$

KYZ091>093-OHZ055-061-077-WVZ005-015-034-035-042-202200
...SOUTHERN OHIO/WEST VIRGINIA...

CITY           SKY/WX    TMP DP  RH WIND       PRES   REMARKS
COVINGTON      LGT RAIN  72  66  83 S3        29.98F
COLUMBUS       MOSUNNY   88  63  43 W9        29.92S
DAYTON         PTSUNNY   86  62  44 W16       29.97S
WILMINGTON     PTSUNNY   84  64  50 W14       29.97R
HUNTINGTON     MOSUNNY   85  68  56 SW7       29.94F
CHARLESTON     MOSUNNY   85  70  60 VRB5      29.96F
PINEVILLE*     MOSUNNY   85  72  65 MISG      30.08R HX  91
BECKLEY        PTSUNNY   81  65  58 W12       30.05F
BLUEFIELD      MOSUNNY   82  66  58 W8        30.09F
$$

VAZ002-007-008-TNZ017-027-036-066-071-202200
...SOUTHWEST VIRGINIA/EAST TENNESSEE...

CITY           SKY/WX    TMP DP  RH WIND       PRES   REMARKS
WISE*          PTSUNNY   77  68  73 SW9       30.09F
JONESVILLE*      N/A     75  72  88 CALM      30.06F
ABINGDON*      MOSUNNY   82  71  68 W9        30.06F
BRISTOL        MOSUNNY   84  69  60 VRB5      30.02F
KNOXVILLE      CLOUDY    72  66  81 SW13      30.01F
OAK RIDGE      PTSUNNY   75  70  84 CALM      30.02F
CROSSVILLE     CLOUDY    73  63  70 W16G33    30.10R
NASHVILLE      CLOUDY    77  70  79 SE24G32   30.01R THUNDER
$$

...KEY TO REMARKS...
VSB - VISIBILITY IN MILES
WCI - WIND CHILL INDEX
HX  - HEAT INDEX

$$


USA.gov is the U.S. government's official web portal to all federal, state and local government web resources and services.